Date String (YYYY-MM-DD hh:mm:ss) UTC,Instrument flags,Ambient pressure (hPa),Sample flow (lpm),Bypass flow (lpm),Sample temperature (°C),Ambient temperature (°C),ASC tube jacket temperature (°C),LED temperature (°C),Box temperature (°C),Sample RH (%),Span deviation,Mass concentration (μg/m³),Mass concentration (μg/m³),Mass concentration (μg/m³)
DateTimeUTC,F1_M11,P_M11,Q1_M11,Q2_M11,T1_M11,T2_M11,T3_M11,T4_M11,T5_M11,U1_M11,ZSPAN_M11,X0_M11,X2_M11,X1_M11
2021-12-25 18:00:00,,0818.9,4.98,0.00,23.0,22.1,00.0,31.8,24.8,12.4,0000.0,0001.36,0000.47,0000.34
2021-12-25 18:01:00,,0818.8,5.01,0.00,23.0,22.1,00.0,31.8,24.8,12.1,0000.0,0001.36,0000.47,0000.34
2021-12-25 18:02:00,,0818.8,5.01,0.00,23.0,22.1,00.0,31.8,24.8,12.3,0000.0,0001.41,0000.48,0000.33
2021-12-25 18:03:00,,0818.8,4.98,0.00,23.0,22.2,00.0,31.8,24.9,12.1,0000.0,0001.43,0000.48,0000.33
2021-12-25 18:04:00,,0818.8,5.01,0.00,23.1,22.2,00.0,31.9,24.9,11.9,0000.0,0001.51,0000.49,0000.34
2021-12-25 18:05:00,,0818.8,4.99,0.00,23.1,22.2,00.0,31.9,24.9,11.9,0000.0,0001.39,0000.46,0000.34
2021-12-25 18:06:00,,0818.8,5.00,0.00,23.1,22.2,00.0,31.9,25.0,11.9,0000.0,0001.37,0000.45,0000.34
2021-12-25 18:07:00,,0818.8,5.00,0.00,23.1,22.3,00.0,31.9,25.0,12.0,0000.0,0001.37,0000.46,0000.34
2021-12-25 18:08:00,,0818.8,5.00,0.00,23.1,22.3,00.0,31.9,25.0,12.0,0000.0,0001.23,0000.46,0000.35
2021-12-25 18:09:00,,0818.8,5.00,0.00,23.2,22.3,00.0,32.0,25.0,12.2,0000.0,0000.82,0000.48,0000.35
2021-12-25 18:10:00,,0818.8,5.00,0.00,23.2,22.4,00.0,32.0,25.0,12.1,0000.0,0000.84,0000.49,0000.35
2021-12-25 18:11:00,,0818.8,5.01,0.00,23.2,22.4,00.0,32.0,25.0,12.1,0000.0,0000.86,0000.49,0000.35
2021-12-25 18:12:00,,0818.8,4.99,0.00,23.2,22.5,00.0,32.0,25.1,12.2,0000.0,0000.95,0000.51,0000.36
2021-12-25 18:13:00,,0818.7,5.00,0.00,23.3,22.5,00.0,32.0,25.1,12.2,0000.0,0001.00,0000.52,0000.36
2021-12-25 18:14:00,,0818.8,5.01,0.00,23.3,22.5,00.0,32.1,25.1,11.8,0000.0,0000.98,0000.52,0000.37
2021-12-25 18:15:00,,0818.7,5.00,0.00,23.3,22.5,00.0,32.1,25.1,11.8,0000.0,0001.19,0000.50,0000.36
2021-12-25 18:16:00,,0818.8,4.99,0.00,23.3,22.6,00.0,32.1,25.2,11.8,0000.0,0001.21,0000.48,0000.35
2021-12-25 18:17:00,,0818.8,5.01,0.00,23.4,22.6,00.0,32.1,25.2,11.8,0000.0,0001.23,0000.49,0000.36
2021-12-25 18:18:00,,0818.7,4.99,0.00,23.4,22.6,00.0,32.2,25.2,11.8,0000.0,0001.34,0000.51,0000.36
2021-12-25 18:19:00,,0818.7,5.01,0.00,23.4,22.7,00.0,32.2,25.2,11.5,0000.0,0001.34,0000.51,0000.36
2021-12-25 18:20:00,,0818.8,4.99,0.00,23.5,22.7,00.0,32.2,25.3,11.6,0000.0,0001.31,0000.49,0000.37
2021-12-25 18:21:00,,0818.8,4.99,0.00,23.5,22.8,00.0,32.2,25.3,11.6,0000.0,0001.32,0000.49,0000.37
2021-12-25 18:22:00,,0818.7,5.00,0.00,23.5,22.8,00.0,32.3,25.4,11.1,0000.0,0001.34,0000.49,0000.36
2021-12-25 18:23:00,,0818.7,5.02,0.00,23.6,22.8,00.0,32.3,25.4,10.9,0000.0,0001.28,0000.48,0000.36
2021-12-25 18:24:00,,0818.8,5.00,0.00,23.6,22.9,00.0,32.3,25.5,10.9,0000.0,0001.16,0000.46,0000.36
2021-12-25 18:25:00,,0818.7,5.00,0.00,23.6,22.9,00.0,32.3,25.5,10.9,0000.0,0001.20,0000.46,0000.36
2021-12-25 18:26:00,,0818.7,4.99,0.00,23.6,22.9,00.0,32.4,25.5,11.4,0000.0,0001.56,0000.49,0000.36
2021-12-25 18:27:00,,0818.7,5.00,0.00,23.7,23.0,00.0,32.4,25.5,11.4,0000.0,0001.43,0000.49,0000.37
2021-12-25 18:28:00,,0818.5,5.01,0.00,23.7,23.0,00.0,32.4,25.5,10.3,0000.0,0001.41,0000.48,0000.36
2021-12-25 18:29:00,,0818.6,5.00,0.00,23.7,23.0,00.0,32.4,25.6,10.1,0000.0,0001.36,0000.47,0000.36
2021-12-25 18:30:00,,0818.7,5.01,0.00,23.7,23.0,00.0,32.5,25.6,10.6,0000.0,0001.72,0000.46,0000.35
2021-12-25 18:31:00,,0818.8,4.99,0.00,23.8,23.0,00.0,32.5,25.6,10.8,0000.0,0001.83,0000.48,0000.35
2021-12-25 18:32:00,,0818.7,5.00,0.00,23.8,23.0,00.0,32.5,25.6,11.2,0000.0,0001.86,0000.48,0000.34
2021-12-25 18:33:00,,0818.7,5.01,0.00,23.8,23.0,00.0,32.5,25.6,11.1,0000.0,0001.85,0000.48,0000.35
2021-12-25 18:34:00,,0818.7,4.99,0.00,23.8,23.0,00.0,32.6,25.6,09.9,0000.0,0001.88,0000.49,0000.35
2021-12-25 18:35:00,,0818.7,5.00,0.00,23.8,23.0,00.0,32.6,25.6,09.8,0000.0,0001.94,0000.51,0000.35
2021-12-25 18:36:00,,0818.7,4.99,0.00,23.9,23.1,00.0,32.6,25.6,10.1,0000.0,0001.97,0000.52,0000.35
2021-12-25 18:37:00,,0818.7,5.01,0.00,23.9,23.1,00.0,32.6,25.6,09.9,0000.0,0001.45,0000.51,0000.36
2021-12-25 18:38:00,,0818.7,5.00,0.00,23.9,23.0,00.0,32.7,25.7,10.3,0000.0,0002.48,0000.51,0000.35
2021-12-25 18:39:00,,0818.6,4.99,0.00,23.9,23.1,00.0,32.7,25.7,10.4,0000.0,0002.49,0000.51,0000.35
2021-12-25 18:40:00,,0818.8,5.01,0.00,23.9,23.0,00.0,32.7,25.7,10.2,0000.0,0002.44,0000.50,0000.35
2021-12-25 18:41:00,,0818.7,4.99,0.00,23.9,23.0,00.0,32.7,25.7,09.5,0000.0,0002.12,0000.52,0000.36
2021-12-25 18:42:00,,0818.7,5.00,0.00,23.9,23.0,00.0,32.7,25.7,09.4,0000.0,0001.99,0000.50,0000.36
2021-12-25 18:43:00,,0818.8,5.01,0.00,23.9,23.0,00.0,32.7,25.7,09.5,0000.0,0002.03,0000.51,0000.36
2021-12-25 18:44:00,,0818.7,4.98,0.00,23.9,23.1,00.0,32.8,25.7,09.1,0000.0,0002.09,0000.53,0000.36
2021-12-25 18:45:00,,0818.7,5.01,0.00,24.0,23.1,00.0,32.8,25.7,08.9,0000.0,0002.04,0000.51,0000.35
2021-12-25 18:46:00,,0818.7,5.00,0.00,24.0,23.1,00.0,32.8,25.7,09.0,0000.0,0001.94,0000.48,0000.35
2021-12-25 18:47:00,,0818.6,5.00,0.00,24.0,23.1,00.0,32.8,25.8,09.0,0000.0,0001.89,0000.46,0000.35
2021-12-25 18:48:00,,0818.7,5.00,0.00,24.0,23.1,00.0,32.8,25.8,09.3,0000.0,0001.90,0000.47,0000.34
2021-12-25 18:49:00,,0818.7,4.99,0.00,24.0,23.1,00.0,32.8,25.8,09.4,0000.0,0000.75,0000.45,0000.34
2021-12-25 18:50:00,,0818.7,5.01,0.00,24.0,23.1,00.0,32.9,25.8,09.5,0000.0,0000.73,0000.44,0000.34
2021-12-25 18:51:00,,0818.6,4.99,0.00,24.0,23.1,00.0,32.9,25.8,09.4,0000.0,0000.78,0000.46,0000.33
2021-12-25 18:52:00,,0818.6,5.00,0.00,24.0,23.1,00.0,32.9,25.8,09.3,0000.0,0000.76,0000.45,0000.32
2021-12-25 18:53:00,,0818.6,4.99,0.00,24.0,23.1,00.0,32.9,25.8,09.4,0000.0,0000.76,0000.46,0000.33
2021-12-25 18:54:00,,0818.6,5.00,0.00,24.1,23.1,00.0,32.9,25.9,09.3,0000.0,0000.65,0000.43,0000.33
2021-12-25 18:55:00,,0818.6,4.99,0.00,24.1,23.1,00.0,32.9,25.9,09.1,0000.0,0000.60,0000.43,0000.33
2021-12-25 18:56:00,,0818.5,5.00,0.00,24.1,23.2,00.0,32.9,25.9,09.4,0000.0,0000.60,0000.43,0000.33
2021-12-25 18:57:00,,0818.5,5.01,0.00,24.1,23.2,00.0,32.9,25.9,09.2,0000.0,0000.66,0000.46,0000.33
2021-12-25 18:58:00,,0818.4,4.99,0.00,24.1,23.2,00.0,33.0,26.0,09.0,0000.0,0000.70,0000.47,0000.33
2021-12-25 18:59:00,,0818.5,5.01,0.00,24.1,23.2,00.0,33.0,26.0,09.2,0000.0,0001.17,0000.46,0000.33
